Baltimore, MD

5:48 AM EDT on March 23, 2017 (GMT -0400)
Baltimore-Washington International

Weather History for KBWI - August, 2014

Change the Weather History Date:

Saturday, August 9, 2014

  Actual Average Record
Temperature  
Mean Temperature 72 °F 76 °F  
Max Temperature 84 °F 86 °F 101 °F (1930)
Min Temperature 60 °F 66 °F 53 °F (1989)
Degree Days  
Heating Degree Days 0 0  
Month to date heating degree days 0 0  
Since 1 June heating degree days 2 15  
Since 1 July heating degree days 0 0  
Cooling Degree Days 7 11  
Month to date cooling degree days 73 101  
Year to date cooling degree days 749 795  
Since 1 June cooling degree days 664 711  
Growing Degree Days 22 (Base 50)    
Moisture  
Dew Point 61 °F    
Average Humidity 71    
Maximum Humidity 97    
Minimum Humidity 45    
Precipitation  
Precipitation 0.00 in 0.11 in 1.95 in (1969)
Month to date precipitation 0.82 1.04  
Year to date precipitation 31.19 25.60  
Snow  
Snow 0.00 in 0.00 in - ()
Month to date snowfall 0.0 0.0  
Since 1 July snowfall 0.0 0.0  
Snow Depth 0.00 in    
Sea Level Pressure  
Sea Level Pressure 30.10 in    
Wind  
Wind Speed 4 mph (ESE)    
Max Wind Speed 13 mph    
Max Gust Speed 16 mph    
Visibility 10 miles    
Events      
T = Trace of Precipitation, MM = Missing Value Source: NWS Daily Summary

Daily Weather History Graph

Daily Weather History Graph

Search for Another Location

Airport or City:

Trip Planner

Search our weather history database for the weather conditions in past years. The results will help you decide how hot, cold, wet, or windy it might be!

Date:

Astronomy

Aug. 09, 2014 Rise Set
Actual Time 6:14 AM EDT 8:09 PM EDT
Civil Twilight 5:45 AM EDT 8:38 PM EDT
Nautical Twilight 5:09 AM EDT 9:13 PM EDT
Astronomical Twilight 4:31 AM EDT 9:51 PM EDT
Moon 7:09 PM EDT (8/9) 4:52 AM EDT (8/9)
Length of Visible Light 14h 53m
Length of Day
13h 55m
Waxing Gibbous, 98% of the Moon is Illuminated
Aug 9
Waxing Gibbous
Aug 10
Full
Aug 17
Last Quarter
Aug 25
New
Sep 2
First Quarter

Hourly Weather History & Observations

Time (EDT) Temp. Heat Index Dew Point Humidity Pressure Visibility Wind Dir Wind Speed Gust Speed Precip Events Conditions
12:54 AM 64.4 °F - 60.8 °F 88% 30.11 in 10.0 mi Calm Calm - N/A   Partly Cloudy
1:54 AM 64.0 °F - 60.1 °F 87% 30.11 in 10.0 mi Calm Calm - N/A   Scattered Clouds
2:54 AM 64.9 °F - 60.1 °F 84% 30.10 in 9.0 mi Calm Calm - N/A   Scattered Clouds
3:54 AM 64.0 °F - 60.1 °F 87% 30.09 in 9.0 mi Calm Calm - N/A   Scattered Clouds
4:54 AM 64.0 °F - 60.1 °F 87% 30.10 in 10.0 mi Calm Calm - N/A   Mostly Cloudy
5:54 AM 61.0 °F - 59.0 °F 93% 30.11 in 10.0 mi Calm Calm - N/A   Mostly Cloudy
6:54 AM 64.0 °F - 60.1 °F 87% 30.11 in 9.0 mi Calm Calm - N/A   Scattered Clouds
7:54 AM 69.1 °F - 62.1 °F 78% 30.12 in 9.0 mi Calm Calm - N/A   Scattered Clouds
8:54 AM 73.9 °F - 63.0 °F 68% 30.12 in 8.0 mi ENE 5.8 mph - N/A   Mostly Cloudy
9:54 AM 75.9 °F - 62.1 °F 62% 30.12 in 10.0 mi Variable 5.8 mph - N/A   Mostly Cloudy
10:54 AM 78.1 °F - 64.0 °F 62% 30.13 in 10.0 mi East 6.9 mph - N/A   Mostly Cloudy
11:54 AM 80.1 °F 81.1 °F 61.0 °F 52% 30.13 in 10.0 mi SE 6.9 mph - N/A   Mostly Cloudy
1:54 PM 82.0 °F 83.0 °F 62.1 °F 51% 30.11 in 10.0 mi NE 5.8 mph - N/A   Mostly Cloudy
2:54 PM 82.9 °F 83.3 °F 61.0 °F 47% 30.09 in 10.0 mi ENE 10.4 mph - N/A   Scattered Clouds
3:54 PM 82.0 °F 82.4 °F 60.1 °F 47% 30.08 in 10.0 mi East 5.8 mph - N/A   Scattered Clouds
4:54 PM 82.0 °F 82.1 °F 59.0 °F 45% 30.07 in 10.0 mi SE 6.9 mph - N/A   Scattered Clouds
5:54 PM 81.0 °F 81.1 °F 57.9 °F 45% 30.07 in 10.0 mi ESE 8.1 mph - N/A   Scattered Clouds
6:54 PM 80.1 °F 80.6 °F 57.9 °F 47% 30.07 in 10.0 mi East 6.9 mph - N/A   Mostly Cloudy
7:54 PM 78.1 °F - 60.1 °F 54% 30.08 in 10.0 mi SE 4.6 mph - N/A   Scattered Clouds
8:54 PM 75.9 °F - 63.0 °F 64% 30.09 in 10.0 mi South 3.5 mph - N/A   Mostly Cloudy
9:54 PM 73.9 °F - 64.0 °F 71% 30.11 in 10.0 mi South 3.5 mph - N/A   Scattered Clouds
10:54 PM 72.0 °F - 64.0 °F 76% 30.12 in 9.0 mi Calm Calm - N/A   Scattered Clouds
11:54 PM 70.0 °F - 64.0 °F 81% 30.12 in 9.0 mi Calm Calm - N/A   Scattered Clouds